DAL9972 RKSI-KSEA

Flight info

Callsign DAL9972
Flight time N/A
Altitude 35000
Route EGOBA2Y EGOBA Y697 LANAT Y51 SAMON Y142 GTC Y512 ADNAP OTR5 KALNA DCT 45N160E 49N170E 52N180W/N0477F370 54N170W DCT DUT DCT 54N160W 53N150W DCT NUDGE/N0467F390 DCT TOU MARNR8
Aircraft A339/H-SADE1E2E3GHIJ3J5M1P2RWXY/LB2D1

Departure

Time 2026-05-04 06:30
Airport Incheon International Airport (RKSI)

Arrival

Time N/A
Airport Seattle–Tacoma International Airport (KSEA)
Time Latitude Longitude Altitude Speed Heading
2026-05-04 05:31 37.46429 126.43337 38 ft 0 kts 258°
2026-05-04 06:13 37.46436 126.43382 38 ft 4 kts 260°
2026-05-04 06:14 37.46416 126.43495 35 ft 0 kts 324°
2026-05-04 06:18 37.46431 126.43482 35 ft 4 kts 325°
2026-05-04 06:18 37.46454 126.43476 35 ft 4 kts 357°
2026-05-04 06:18 37.46503 126.43507 38 ft 12 kts 40°
2026-05-04 06:20 37.46160 126.43629 38 ft 12 kts 235°
2026-05-04 06:20 37.46110 126.43536 38 ft 15 kts 235°
2026-05-04 06:21 37.45808 126.43133 38 ft 13 kts 154°
2026-05-04 06:21 37.45730 126.43200 37 ft 15 kts 145°
2026-05-04 06:22 37.45623 126.43294 38 ft 23 kts 145°
2026-05-04 06:22 37.45478 126.43425 38 ft 27 kts 144°
2026-05-04 06:25 37.44481 126.44312 38 ft 0 kts 150°
2026-05-04 06:26 37.44476 126.44315 38 ft 2 kts 151°
2026-05-04 06:26 37.44448 126.44315 38 ft 4 kts 188°
2026-05-04 06:27 37.44426 126.44295 37 ft 0 kts 222°
2026-05-04 06:28 37.44418 126.44283 37 ft 5 kts 229°
2026-05-04 06:28 37.44380 126.44218 36 ft 11 kts 234°
2026-05-04 06:28 37.44365 126.44162 36 ft 10 kts 270°
2026-05-04 06:28 37.44395 126.44121 36 ft 0 kts 324°
2026-05-04 06:29 37.44455 126.44067 37 ft 38 kts 324°
2026-05-04 06:29 37.44871 126.43691 35 ft 107 kts 325°
2026-05-04 06:30 37.45647 126.43009 42 ft 161 kts 325°
2026-05-04 06:30 37.46664 126.42155 328 ft 181 kts 323°
2026-05-04 06:30 37.47705 126.41252 1016 ft 182 kts 320°
2026-05-04 06:30 37.48562 126.40125 1776 ft 176 kts 304°
2026-05-04 06:31 37.49236 126.38814 2321 ft 185 kts 302°
2026-05-04 06:31 37.49981 126.37400 2572 ft 205 kts 299°
2026-05-04 06:31 37.50465 126.35631 2867 ft 221 kts 279°
2026-05-04 06:31 37.50495 126.33659 3339 ft 232 kts 272°
2026-05-04 06:32 37.50499 126.31555 3603 ft 246 kts 273°
2026-05-04 06:33 37.48432 126.16699 7208 ft 289 kts 212°
2026-05-04 06:34 37.46553 126.15733 7719 ft 296 kts 200°
2026-05-04 06:34 37.44562 126.15004 8222 ft 299 kts 198°
2026-05-04 06:34 37.42525 126.14420 8692 ft 305 kts 185°
2026-05-04 06:34 37.40418 126.14753 9233 ft 309 kts 160°
2026-05-04 06:35 37.38566 126.16107 9752 ft 310 kts 135°
2026-05-04 06:36 37.32617 126.34442 11938 ft 355 kts 86°
2026-05-04 06:37 37.32603 126.37557 12402 ft 358 kts 86°
2026-05-04 06:37 37.32576 126.40703 12864 ft 362 kts 86°
2026-05-04 06:37 37.32543 126.43873 13327 ft 364 kts 86°
2026-05-04 06:37 37.32507 126.47068 13788 ft 368 kts 86°
2026-05-04 06:38 37.32468 126.50297 14196 ft 371 kts 86°
2026-05-04 06:38 37.32428 126.53549 14592 ft 374 kts 86°
2026-05-04 06:40 37.32133 126.77022 17337 ft 395 kts 87°
2026-05-04 06:40 37.32091 126.80484 17720 ft 398 kts 87°
2026-05-04 06:40 37.32048 126.83974 18134 ft 401 kts 87°
2026-05-04 06:40 37.32007 126.87486 18497 ft 404 kts 87°
2026-05-04 06:41 37.31968 126.90731 18812 ft 407 kts 87°
2026-05-04 06:41 37.31923 126.94251 19136 ft 410 kts 87°
2026-05-04 06:41 37.31919 126.97842 19475 ft 411 kts 82°
2026-05-04 06:41 37.32409 127.01360 19804 ft 408 kts 69°
2026-05-04 06:42 37.33493 127.04623 20160 ft 404 kts 56°
2026-05-04 06:42 37.34921 127.07666 20482 ft 406 kts 54°
2026-05-04 06:42 37.36354 127.10730 20869 ft 408 kts 54°
2026-05-04 06:44 37.46532 127.33023 23337 ft 430 kts 55°
2026-05-04 06:44 37.47950 127.36364 23622 ft 437 kts 61°
2026-05-04 06:44 37.49032 127.39978 23913 ft 445 kts 69°
2026-05-04 06:45 37.49732 127.43799 24205 ft 451 kts 76°
2026-05-04 06:45 37.50321 127.47691 24490 ft 454 kts 75°
2026-05-04 06:45 37.50939 127.51613 24775 ft 458 kts 75°
2026-05-04 06:45 37.51569 127.55547 25076 ft 459 kts 74°
2026-05-04 06:46 37.52202 127.59501 25353 ft 462 kts 75°
2026-05-04 06:46 37.52842 127.63491 25578 ft 467 kts 75°
2026-05-04 06:46 37.53482 127.67515 25894 ft 468 kts 75°
2026-05-04 06:46 37.54121 127.71545 26131 ft 472 kts 75°
2026-05-04 06:48 37.58680 128.00513 28020 ft 493 kts 75°
2026-05-04 06:48 37.59341 128.04763 28285 ft 495 kts 75°
2026-05-04 06:49 37.60005 128.09034 28578 ft 497 kts 75°
2026-05-04 06:50 37.64696 128.39547 30295 ft 515 kts 76°
2026-05-04 06:51 37.65372 128.43996 30519 ft 517 kts 75°
2026-05-04 06:51 37.66052 128.48470 30744 ft 520 kts 76°
2026-05-04 06:51 37.66731 128.52961 30972 ft 523 kts 76°
2026-05-04 06:51 37.67416 128.57491 31168 ft 526 kts 76°
2026-05-04 06:52 37.68099 128.62033 31387 ft 528 kts 76°
2026-05-04 06:52 37.68780 128.66598 31608 ft 530 kts 76°
2026-05-04 06:52 37.69323 128.71223 31759 ft 536 kts 84°
2026-05-04 06:52 37.69261 128.75943 31967 ft 539 kts 96°
2026-05-04 06:53 37.68559 128.80592 32145 ft 541 kts 108°
2026-05-04 06:53 37.67235 128.85026 32309 ft 539 kts 119°
2026-05-04 06:53 37.65362 128.89030 32502 ft 535 kts 130°
2026-05-04 06:53 37.63040 128.92670 32649 ft 532 kts 136°
2026-05-04 06:54 37.60677 128.96287 32808 ft 536 kts 133°
2026-05-04 06:54 37.58459 129.00072 32967 ft 539 kts 130°
2026-05-04 06:54 37.56370 129.04023 33094 ft 542 kts 127°
2026-05-04 06:54 37.54362 129.08067 33223 ft 545 kts 126°
2026-05-04 06:55 37.50424 129.16250 33433 ft 547 kts 126°
2026-05-04 06:55 37.48453 129.20353 33564 ft 547 kts 126°
2026-05-04 06:55 37.46480 129.24448 33697 ft 548 kts 127°
2026-05-04 06:56 37.44502 129.28538 33830 ft 548 kts 127°
2026-05-04 06:57 37.30574 129.57189 34609 ft 549 kts 128°
2026-05-04 06:58 37.28577 129.61277 34718 ft 549 kts 128°
2026-05-04 06:58 37.26578 129.65362 34824 ft 549 kts 128°
2026-05-04 06:58 37.24576 129.69448 34931 ft 549 kts 128°
2026-05-04 06:58 37.22574 129.73531 34947 ft 548 kts 128°
2026-05-04 06:59 37.18603 129.81611 34945 ft 548 kts 129°
2026-05-04 06:59 37.14572 129.89792 34951 ft 548 kts 129°
2026-05-04 07:01 36.98527 130.22161 34957 ft 548 kts 130°
2026-05-04 07:02 36.94484 130.30265 34959 ft 549 kts 130°
2026-05-04 07:02 36.90435 130.38361 34955 ft 550 kts 130°
2026-05-04 07:03 36.86374 130.46464 34957 ft 551 kts 131°
2026-05-04 07:03 36.82300 130.54573 34958 ft 552 kts 131°
2026-05-04 07:04 36.78217 130.62683 34958 ft 553 kts 131°
2026-05-04 07:04 36.74117 130.70808 34960 ft 554 kts 131°
2026-05-04 07:05 36.70007 130.78931 34960 ft 555 kts 132°
2026-05-04 07:05 36.65879 130.87070 34967 ft 555 kts 132°
2026-05-04 07:06 36.59702 130.99217 34970 ft 556 kts 133°
2026-05-04 07:07 36.55559 131.07342 34975 ft 556 kts 133°
2026-05-04 07:09 36.39131 131.39794 34972 ft 565 kts 125°
2026-05-04 07:09 36.37720 131.44414 34969 ft 580 kts 114°
2026-05-04 07:09 36.36905 131.49364 34968 ft 592 kts 102°
2026-05-04 07:10 36.36603 131.59662 34967 ft 599 kts 95°
2026-05-04 07:12 36.35491 132.00873 34967 ft 597 kts 98°
2026-05-04 07:12 36.35133 132.11171 34964 ft 597 kts 98°
2026-05-04 07:13 36.34765 132.21466 34966 ft 598 kts 98°
2026-05-04 07:13 36.34391 132.31705 34970 ft 598 kts 98°
2026-05-04 07:14 36.33410 132.57440 34966 ft 597 kts 99°
2026-05-04 07:15 36.33003 132.67729 34962 ft 597 kts 99°
2026-05-04 07:15 36.32588 132.78007 34965 ft 596 kts 99°
2026-05-04 07:16 36.32164 132.88278 34963 ft 595 kts 99°
2026-05-04 07:16 36.31735 132.98464 34960 ft 594 kts 100°
2026-05-04 07:17 36.31296 133.08689 34960 ft 593 kts 100°
2026-05-04 07:17 36.30922 133.17244 34958 ft 593 kts 101°
2026-05-04 07:18 36.30472 133.27396 34955 ft 592 kts 101°
2026-05-04 07:18 36.30006 133.37554 34953 ft 591 kts 101°
2026-05-04 07:19 36.29534 133.47747 34945 ft 591 kts 101°
2026-05-04 07:19 36.29057 133.57929 34944 ft 591 kts 102°
2026-05-04 07:20 36.28571 133.68093 34937 ft 591 kts 102°
2026-05-04 07:20 36.28078 133.78255 34937 ft 590 kts 102°
2026-05-04 07:22 36.26006 134.18762 34934 ft 588 kts 103°
2026-05-04 07:23 36.25468 134.28879 34926 ft 588 kts 103°
2026-05-04 07:23 36.24922 134.38974 34925 ft 587 kts 103°
2026-05-04 07:24 36.24867 134.49159 34911 ft 603 kts 89°
2026-05-04 07:24 36.25715 134.54279 34912 ft 612 kts 77°
2026-05-04 07:24 36.27177 134.59184 34910 ft 617 kts 66°
2026-05-04 07:26 36.42911 134.97170 34906 ft 620 kts 65°
2026-05-04 07:27 36.46697 135.06800 34905 ft 620 kts 65°
2026-05-04 07:27 36.50477 135.16437 34907 ft 621 kts 65°
2026-05-04 07:28 36.54256 135.26095 34905 ft 622 kts 65°
2026-05-04 07:28 36.58033 135.35778 34912 ft 622 kts 65°
2026-05-04 07:29 36.61804 135.45476 34909 ft 622 kts 66°
2026-05-04 07:29 36.65546 135.55131 34899 ft 623 kts 66°
2026-05-04 07:30 36.69305 135.64858 34890 ft 623 kts 66°
2026-05-04 07:30 36.73056 135.74595 34886 ft 624 kts 66°
2026-05-04 07:31 36.76804 135.84358 34883 ft 624 kts 66°
2026-05-04 07:33 36.91738 136.23552 34868 ft 626 kts 66°
2026-05-04 07:33 36.95467 136.33418 34863 ft 626 kts 66°
2026-05-04 07:34 36.99186 136.43286 34861 ft 626 kts 66°
2026-05-04 07:34 37.02889 136.53144 34859 ft 627 kts 66°
2026-05-04 07:35 37.06569 136.62970 34851 ft 627 kts 66°
2026-05-04 07:35 37.10261 136.72850 34833 ft 626 kts 66°
2026-05-04 07:36 37.13942 136.82746 34816 ft 626 kts 67°
2026-05-04 07:38 37.28586 137.22413 34811 ft 626 kts 67°
2026-05-04 07:38 37.32227 137.32352 34810 ft 627 kts 67°
2026-05-04 07:39 37.35862 137.42307 34808 ft 626 kts 68°
2026-05-04 07:39 37.39484 137.52260 34798 ft 625 kts 68°
2026-05-04 07:40 37.43095 137.62217 34804 ft 624 kts 68°
2026-05-04 07:40 37.46685 137.72148 34789 ft 623 kts 68°
2026-05-04 07:41 37.50267 137.82089 34781 ft 622 kts 68°
2026-05-04 07:41 37.53829 137.92009 34779 ft 621 kts 68°
2026-05-04 07:42 37.57356 138.01863 34774 ft 621 kts 69°
2026-05-04 07:42 37.60894 138.11780 34772 ft 620 kts 69°
2026-05-04 07:43 37.64430 138.21723 34764 ft 620 kts 69°
2026-05-04 07:43 37.67953 138.31660 34761 ft 620 kts 69°
2026-05-04 07:44 37.71468 138.41606 34755 ft 620 kts 69°
2026-05-04 07:44 37.74973 138.51557 34751 ft 620 kts 69°
2026-05-04 07:45 37.78474 138.61530 34747 ft 620 kts 70°
2026-05-04 07:45 37.81962 138.71497 34741 ft 620 kts 70°
2026-05-04 07:46 37.85447 138.81490 34721 ft 621 kts 70°
2026-05-04 07:46 37.88924 138.91493 34704 ft 621 kts 70°
2026-05-04 07:47 37.92394 139.01510 34688 ft 621 kts 70°
2026-05-04 07:49 37.99207 139.43255 34721 ft 604 kts 91°
2026-05-04 07:49 38.00308 139.53752 34732 ft 604 kts 91°
2026-05-04 07:50 38.01401 139.64318 34717 ft 604 kts 91°
2026-05-04 07:50 38.02484 139.74868 34718 ft 604 kts 91°
2026-05-04 07:51 38.03560 139.85431 34702 ft 604 kts 91°
2026-05-04 07:51 38.04621 139.95991 34692 ft 603 kts 91°
2026-05-04 07:52 38.05674 140.06538 34678 ft 602 kts 91°
2026-05-04 07:52 38.06718 140.17078 34672 ft 602 kts 91°
2026-05-04 07:54 38.10771 140.59035 34585 ft 596 kts 91°
2026-05-04 07:55 38.11758 140.69503 34568 ft 597 kts 91°
2026-05-04 07:55 38.12736 140.79980 34548 ft 596 kts 92°
2026-05-04 07:56 38.13565 140.90422 34555 ft 588 kts 98°
2026-05-04 07:56 38.13457 140.95558 34556 ft 576 kts 107°
2026-05-04 07:56 38.12942 141.00555 34554 ft 567 kts 111°
2026-05-04 07:57 38.11793 141.10462 34572 ft 567 kts 110°
2026-05-04 07:57 38.10673 141.20369 34582 ft 566 kts 110°
2026-05-04 07:58 38.09546 141.30263 34602 ft 565 kts 110°
2026-05-04 07:58 38.08412 141.40117 34613 ft 564 kts 110°
2026-05-04 07:59 38.07272 141.49943 34616 ft 562 kts 110°
2026-05-04 07:59 38.06132 141.59699 34615 ft 561 kts 110°
2026-05-04 08:00 38.04981 141.69471 34609 ft 560 kts 110°
2026-05-04 08:02 38.00316 142.08372 34613 ft 556 kts 110°
2026-05-04 08:02 37.99332 142.16418 34609 ft 556 kts 110°
2026-05-04 08:03 37.98142 142.26094 34609 ft 555 kts 110°
2026-05-04 08:03 37.96945 142.35763 34613 ft 555 kts 110°
2026-05-04 08:04 37.95742 142.45411 34611 ft 554 kts 110°
2026-05-04 08:04 37.94710 142.55135 34595 ft 566 kts 101°
2026-05-04 08:05 37.94887 142.60184 34597 ft 581 kts 90°
2026-05-04 08:05 37.95646 142.65246 34608 ft 589 kts 83°
2026-05-04 08:05 37.97720 142.75327 34606 ft 591 kts 81°
2026-05-04 08:06 37.99812 142.85395 34605 ft 590 kts 82°
2026-05-04 08:06 38.01835 142.95488 34606 ft 590 kts 82°
2026-05-04 08:08 38.09713 143.35742 34602 ft 587 kts 82°
2026-05-04 08:11 38.18374 143.80986 34604 ft 584 kts 82°
2026-05-04 08:11 38.21216 143.96056 34602 ft 584 kts 82°
2026-05-04 08:12 38.23086 144.06034 34599 ft 584 kts 82°
2026-05-04 08:12 38.24959 144.16080 34600 ft 584 kts 82°
2026-05-04 08:13 38.26826 144.26141 34597 ft 584 kts 82°
2026-05-04 08:13 38.28682 144.36198 34608 ft 584 kts 82°
2026-05-04 08:14 38.30528 144.46253 34603 ft 583 kts 82°
2026-05-04 08:16 38.37818 144.86474 34606 ft 581 kts 82°
2026-05-04 08:16 38.39613 144.96507 34603 ft 581 kts 82°
2026-05-04 08:17 38.41402 145.06560 34602 ft 580 kts 83°
2026-05-04 08:17 38.43179 145.16598 34600 ft 580 kts 83°
2026-05-04 08:19 38.50179 145.56685 34602 ft 579 kts 83°
2026-05-04 08:20 38.51910 145.66729 34592 ft 579 kts 83°
2026-05-04 08:20 38.53628 145.76758 34597 ft 578 kts 83°
2026-05-04 08:21 38.55339 145.86797 34588 ft 578 kts 83°
2026-05-04 08:21 38.57040 145.96830 34591 ft 578 kts 83°
2026-05-04 08:22 38.58734 146.06878 34602 ft 578 kts 83°
2026-05-04 08:24 38.65406 146.47016 34600 ft 577 kts 83°
2026-05-04 08:24 38.67054 146.57068 34599 ft 577 kts 83°
2026-05-04 08:25 38.68693 146.67126 34598 ft 577 kts 83°
2026-05-04 08:25 38.70325 146.77194 34596 ft 577 kts 83°
2026-05-04 08:27 38.76764 147.17505 34600 ft 577 kts 83°
2026-05-04 08:28 38.78342 147.27532 34603 ft 577 kts 83°
2026-05-04 08:28 38.79922 147.37631 34606 ft 577 kts 83°
2026-05-04 08:29 38.81493 147.47729 34606 ft 577 kts 83°
2026-05-04 08:31 38.87669 147.88036 34608 ft 575 kts 83°
2026-05-04 08:33 38.93691 148.28306 34611 ft 573 kts 84°
2026-05-04 08:35 38.99549 148.68469 34610 ft 570 kts 84°
2026-05-04 08:35 39.00988 148.78491 34605 ft 570 kts 84°
2026-05-04 08:37 39.05943 149.13504 34617 ft 567 kts 84°
2026-05-04 08:38 39.07334 149.23482 34618 ft 566 kts 84°
2026-05-04 08:38 39.08717 149.33463 34619 ft 565 kts 84°
2026-05-04 08:40 39.14144 149.73166 34627 ft 562 kts 84°
2026-05-04 08:41 39.16348 149.82837 34624 ft 567 kts 65°
2026-05-04 08:41 39.18328 149.87230 34620 ft 567 kts 54°
2026-05-04 08:41 39.20798 149.91174 34621 ft 565 kts 46°
2026-05-04 08:42 39.26091 149.98674 34616 ft 565 kts 46°
2026-05-04 08:42 39.31321 150.06265 34614 ft 566 kts 47°
2026-05-04 08:43 39.36490 150.13943 34615 ft 566 kts 47°
2026-05-04 08:43 39.41641 150.21642 34613 ft 567 kts 47°
2026-05-04 08:44 39.46797 150.29366 34615 ft 567 kts 47°
2026-05-04 08:46 39.67329 150.60340 34615 ft 567 kts 47°
2026-05-04 08:46 39.72468 150.68143 34616 ft 567 kts 47°
2026-05-04 08:47 39.77598 150.75952 34616 ft 568 kts 47°
2026-05-04 08:47 39.82718 150.83767 34616 ft 568 kts 47°
2026-05-04 08:48 39.86976 150.90281 34613 ft 568 kts 47°
2026-05-04 08:48 39.92917 150.99392 34617 ft 568 kts 47°
2026-05-04 08:49 39.97195 151.05969 34620 ft 567 kts 47°
2026-05-04 08:50 40.14969 151.33447 34618 ft 566 kts 47°
2026-05-04 08:51 40.20038 151.41328 34616 ft 566 kts 47°
2026-05-04 08:51 40.25093 151.49209 34616 ft 565 kts 47°
2026-05-04 08:52 40.30141 151.57096 34612 ft 565 kts 47°
2026-05-04 08:52 40.35188 151.65004 34611 ft 565 kts 47°
2026-05-04 08:54 40.55278 151.96683 34610 ft 565 kts 47°
2026-05-04 08:55 40.60298 152.04650 34611 ft 565 kts 47°
2026-05-04 08:55 40.65313 152.12632 34607 ft 566 kts 47°
2026-05-04 09:01 41.17659 152.97190 34619 ft 567 kts 47°
2026-05-04 09:01 41.22626 153.05336 34616 ft 568 kts 47°
2026-05-04 09:02 41.27595 153.13507 34619 ft 569 kts 47°
2026-05-04 09:02 41.32564 153.21702 34627 ft 569 kts 47°
2026-05-04 09:03 41.37531 153.29916 34627 ft 570 kts 47°
2026-05-04 09:03 41.42499 153.38152 34633 ft 570 kts 47°
2026-05-04 09:04 41.47462 153.46401 34637 ft 570 kts 47°
2026-05-04 09:04 41.52420 153.54664 34639 ft 570 kts 47°
2026-05-04 09:05 41.57340 153.62885 34644 ft 571 kts 47°
2026-05-04 09:05 41.62286 153.71174 34651 ft 570 kts 47°
2026-05-04 09:06 41.67225 153.79476 34660 ft 570 kts 47°
2026-05-04 09:08 41.86886 154.12745 34677 ft 568 kts 47°
2026-05-04 09:08 41.91780 154.21084 34685 ft 568 kts 47°
2026-05-04 09:09 41.96660 154.29422 34688 ft 567 kts 47°
2026-05-04 09:09 42.01531 154.37766 34691 ft 566 kts 47°
2026-05-04 09:10 42.06384 154.46104 34693 ft 566 kts 47°
2026-05-04 09:10 42.11238 154.54468 34698 ft 566 kts 47°
2026-05-04 09:11 42.16075 154.62823 34707 ft 566 kts 47°
2026-05-04 09:11 42.20905 154.71191 34715 ft 565 kts 47°
2026-05-04 09:12 42.25693 154.79509 34727 ft 565 kts 47°
2026-05-04 09:14 42.44896 155.13104 34740 ft 564 kts 47°
2026-05-04 09:14 42.49677 155.21527 34744 ft 564 kts 47°
2026-05-04 09:15 42.54451 155.29960 34749 ft 564 kts 47°
2026-05-04 09:15 42.59217 155.38405 34755 ft 564 kts 47°
2026-05-04 09:17 42.80569 155.76531 34773 ft 564 kts 47°
2026-05-04 09:18 42.85302 155.85049 34783 ft 563 kts 47°
2026-05-04 09:18 42.90021 155.93567 34785 ft 563 kts 48°
2026-05-04 09:19 42.94735 156.02100 34793 ft 562 kts 48°
2026-05-04 09:19 42.99434 156.10629 34796 ft 561 kts 48°
2026-05-04 09:20 43.04118 156.19157 34801 ft 561 kts 47°
2026-05-04 09:20 43.08796 156.27698 34803 ft 560 kts 47°
2026-05-04 09:21 43.13459 156.36236 34806 ft 560 kts 48°
2026-05-04 09:21 43.18085 156.44731 34810 ft 560 kts 48°
2026-05-04 09:22 43.22728 156.53281 34814 ft 559 kts 48°
2026-05-04 09:22 43.27369 156.61851 34814 ft 560 kts 48°
2026-05-04 09:23 43.32007 156.70442 34820 ft 560 kts 48°
2026-05-04 09:23 43.36639 156.79047 34823 ft 560 kts 48°
2026-05-04 09:25 43.55127 157.13644 34846 ft 561 kts 48°
2026-05-04 09:26 43.59740 157.22341 34850 ft 562 kts 48°
2026-05-04 09:26 43.64324 157.31008 34857 ft 563 kts 48°
2026-05-04 09:27 43.68933 157.39748 34864 ft 564 kts 48°
2026-05-04 09:27 43.73550 157.48531 34879 ft 564 kts 48°
2026-05-04 09:28 43.78163 157.57331 34883 ft 565 kts 48°
2026-05-04 09:28 43.82773 157.66155 34873 ft 565 kts 48°
2026-05-04 09:29 43.87382 157.75000 34881 ft 566 kts 48°
2026-05-04 09:29 43.91949 157.83791 34893 ft 566 kts 48°
2026-05-04 09:30 43.96545 157.92667 34895 ft 566 kts 48°
2026-05-04 09:30 44.01137 158.01563 34899 ft 566 kts 48°
2026-05-04 09:31 44.05727 158.10480 34905 ft 566 kts 48°
2026-05-04 09:31 44.10303 158.19397 34903 ft 566 kts 48°
2026-05-04 09:32 44.14869 158.28323 34908 ft 566 kts 48°
2026-05-04 09:34 44.33043 158.64124 34916 ft 567 kts 48°
2026-05-04 09:34 44.37585 158.73140 34914 ft 567 kts 48°
2026-05-04 09:35 44.42116 158.82162 34918 ft 567 kts 48°
2026-05-04 09:35 44.45909 158.89735 34925 ft 567 kts 48°
2026-05-04 09:37 44.63950 159.26039 34931 ft 568 kts 48°
2026-05-04 09:38 44.68453 159.35172 34931 ft 569 kts 48°
2026-05-04 09:38 44.72949 159.44320 34936 ft 569 kts 48°
2026-05-04 09:39 44.77447 159.53497 34937 ft 569 kts 48°
2026-05-04 09:39 44.81941 159.62683 34938 ft 570 kts 48°
2026-05-04 09:40 44.86433 159.71888 34937 ft 570 kts 48°
2026-05-04 09:40 44.90915 159.81100 34940 ft 570 kts 48°
2026-05-04 09:42 45.08660 160.18379 34957 ft 571 kts 48°
2026-05-04 09:43 45.13113 160.27700 34963 ft 572 kts 49°
2026-05-04 09:43 45.17513 160.37001 34969 ft 572 kts 49°
2026-05-04 09:44 45.21933 160.46388 34971 ft 572 kts 49°
2026-05-04 09:46 45.39509 160.84086 34988 ft 571 kts 49°
2026-05-04 09:46 45.43870 160.93525 34988 ft 571 kts 49°
2026-05-04 09:47 45.48224 161.02979 34998 ft 570 kts 49°
2026-05-04 09:49 45.65518 161.40844 34990 ft 569 kts 49°
2026-05-04 09:51 45.80545 161.74167 35008 ft 569 kts 49°
2026-05-04 09:51 45.84821 161.83719 35004 ft 569 kts 49°
2026-05-04 09:52 45.89088 161.93285 35010 ft 569 kts 49°
2026-05-04 09:52 45.93338 162.02847 35012 ft 568 kts 49°
2026-05-04 09:53 45.97578 162.12419 35015 ft 567 kts 49°
2026-05-04 09:53 46.01807 162.21997 35014 ft 566 kts 50°
2026-05-04 09:54 46.06018 162.31566 35013 ft 566 kts 50°
2026-05-04 09:54 46.10221 162.41151 35013 ft 565 kts 50°
2026-05-04 09:55 46.14379 162.50665 35017 ft 564 kts 50°
2026-05-04 09:55 46.18551 162.60245 35002 ft 564 kts 50°
2026-05-04 09:56 46.22716 162.69840 35006 ft 563 kts 50°
2026-05-04 09:56 46.26866 162.79434 35004 ft 563 kts 50°
2026-05-04 09:57 46.31018 162.89066 35004 ft 564 kts 50°
2026-05-04 09:57 46.35154 162.98697 35000 ft 564 kts 50°
2026-05-04 09:58 46.39289 163.08358 35011 ft 564 kts 50°
2026-05-04 09:58 46.43413 163.18027 35002 ft 564 kts 50°
2026-05-04 10:00 46.59825 163.56842 34998 ft 565 kts 50°
2026-05-04 10:04 46.88211 164.25297 34984 ft 559 kts 49°
2026-05-04 10:04 46.92200 164.35054 34978 ft 557 kts 49°
2026-05-04 10:05 46.96167 164.44792 34964 ft 556 kts 49°
2026-05-04 10:05 47.00115 164.54517 34971 ft 555 kts 49°
2026-05-04 10:06 47.04050 164.64245 34956 ft 554 kts 49°
2026-05-04 10:06 47.07972 164.73976 34960 ft 553 kts 49°
2026-05-04 10:08 47.21568 165.07985 34942 ft 551 kts 49°
2026-05-04 10:08 47.25429 165.17719 34931 ft 551 kts 49°
2026-05-04 10:09 47.29280 165.27466 34927 ft 550 kts 49°
2026-05-04 10:09 47.33111 165.37195 34934 ft 549 kts 49°
2026-05-04 10:10 47.36936 165.46945 34930 ft 548 kts 49°
2026-05-04 10:10 47.40718 165.56617 34925 ft 547 kts 49°
2026-05-04 10:11 47.44503 165.66339 34921 ft 546 kts 49°
2026-05-04 10:11 47.48305 165.76133 34915 ft 545 kts 49°
2026-05-04 10:12 47.52060 165.85847 34908 ft 543 kts 49°
2026-05-04 10:12 47.55777 165.95491 34907 ft 542 kts 49°
2026-05-04 10:13 47.59504 166.05199 34899 ft 541 kts 49°
2026-05-04 10:13 47.63220 166.14911 34895 ft 540 kts 50°
2026-05-04 10:14 47.66912 166.24602 34888 ft 539 kts 49°
2026-05-04 10:16 47.81561 166.63385 34862 ft 537 kts 50°
2026-05-04 10:16 47.85173 166.73032 34861 ft 537 kts 50°
2026-05-04 10:17 47.88793 166.82742 34860 ft 536 kts 50°
2026-05-04 10:19 48.03201 167.21731 34835 ft 536 kts 51°
2026-05-04 10:19 48.06783 167.31508 34835 ft 536 kts 51°
2026-05-04 10:20 48.10353 167.41299 34830 ft 536 kts 51°
2026-05-04 10:20 48.13323 167.49464 34830 ft 537 kts 51°
2026-05-04 10:21 48.16884 167.59294 34823 ft 537 kts 51°
2026-05-04 10:21 48.20431 167.69118 34826 ft 536 kts 52°
2026-05-04 10:22 48.25738 167.83894 34833 ft 535 kts 52°
2026-05-04 10:23 48.29228 167.93652 34821 ft 534 kts 52°
2026-05-04 10:25 48.43117 168.32855 34806 ft 526 kts 53°
2026-05-04 10:25 48.46508 168.42521 34805 ft 524 kts 53°
2026-05-04 10:26 48.49906 168.52235 34787 ft 523 kts 53°
2026-05-04 10:26 48.53278 168.61917 34785 ft 521 kts 54°
2026-05-04 10:27 48.56643 168.71608 34778 ft 520 kts 54°
2026-05-04 10:27 48.59984 168.81273 34770 ft 518 kts 55°
2026-05-04 10:28 48.63315 168.90938 34764 ft 517 kts 55°
2026-05-04 10:28 48.66628 169.00592 34764 ft 516 kts 56°
2026-05-04 10:29 48.69923 169.10225 34751 ft 515 kts 56°
2026-05-04 10:29 48.73201 169.19850 34756 ft 514 kts 56°
2026-05-04 10:30 48.76470 169.29483 34739 ft 513 kts 57°
2026-05-04 10:30 48.79723 169.39105 34743 ft 512 kts 57°
2026-05-04 10:31 48.82960 169.48714 34731 ft 511 kts 58°
2026-05-04 10:32 48.94177 169.82221 34719 ft 508 kts 59°
2026-05-04 10:33 48.97360 169.91804 34713 ft 507 kts 59°
2026-05-04 10:33 49.00514 170.01389 34708 ft 506 kts 60°
2026-05-04 10:34 49.03818 170.10838 34701 ft 504 kts 57°
2026-05-04 10:34 49.07275 170.20143 34705 ft 505 kts 58°
2026-05-04 10:35 49.10701 170.29532 34705 ft 507 kts 58°
2026-05-04 10:35 49.14106 170.38966 34702 ft 508 kts 58°
2026-05-04 10:36 49.17509 170.48435 34698 ft 510 kts 59°
2026-05-04 10:36 49.20913 170.57941 34699 ft 509 kts 59°
2026-05-04 10:37 49.24292 170.67433 34684 ft 508 kts 59°
2026-05-04 10:37 49.27661 170.76930 34680 ft 512 kts 59°
2026-05-04 10:39 49.39450 171.10605 34670 ft 499 kts 54°
2026-05-04 10:40 49.42679 171.19906 34680 ft 494 kts 54°
2026-05-04 10:40 49.45939 171.29242 34677 ft 496 kts 54°
2026-05-04 10:41 49.49180 171.38597 34678 ft 496 kts 54°
2026-05-04 10:41 49.52422 171.47991 34782 ft 497 kts 55°
2026-05-04 10:41 49.54041 171.52695 34903 ft 497 kts 55°
2026-05-04 10:42 49.55658 171.57400 35049 ft 497 kts 55°
2026-05-04 10:42 49.57269 171.62097 35177 ft 496 kts 56°
2026-05-04 10:42 49.58881 171.66807 35315 ft 496 kts 56°
2026-05-04 10:42 49.60469 171.71456 35444 ft 496 kts 56°
2026-05-04 10:43 49.62073 171.76160 35576 ft 495 kts 56°
2026-05-04 10:44 49.73202 172.09047 36514 ft 492 kts 57°
2026-05-04 10:45 49.74775 172.13733 36635 ft 492 kts 57°
2026-05-04 10:45 49.77918 172.23118 36670 ft 490 kts 57°
2026-05-04 10:46 49.81046 172.32496 36674 ft 490 kts 57°
2026-05-04 10:46 49.84162 172.41870 36668 ft 489 kts 57°
2026-05-04 10:47 49.87247 172.51187 36674 ft 489 kts 58°
2026-05-04 10:47 49.90343 172.60572 36671 ft 488 kts 58°
2026-05-04 10:49 50.02627 172.98159 36671 ft 487 kts 58°
2026-05-04 10:50 50.05673 173.07568 36674 ft 487 kts 59°
2026-05-04 10:52 50.17771 173.45291 36668 ft 486 kts 59°
2026-05-04 10:52 50.20771 173.54735 36680 ft 486 kts 59°
2026-05-04 10:54 50.32686 173.92601 36689 ft 486 kts 60°
2026-05-04 10:56 50.44486 174.30687 36699 ft 485 kts 61°
2026-05-04 10:57 50.47411 174.40220 36706 ft 485 kts 61°
2026-05-04 10:57 50.50307 174.49696 36698 ft 484 kts 61°
2026-05-04 10:58 50.53214 174.59246 36700 ft 484 kts 61°
2026-05-04 10:58 50.56111 174.68799 36702 ft 484 kts 62°
2026-05-04 10:59 50.58996 174.78349 36703 ft 483 kts 62°
2026-05-04 10:59 50.61873 174.87912 36708 ft 483 kts 62°
2026-05-04 11:00 50.64741 174.97481 36713 ft 483 kts 62°
2026-05-04 11:02 50.76110 175.35796 36702 ft 481 kts 63°
2026-05-04 11:05 50.96948 176.07654 36715 ft 478 kts 64°
2026-05-04 11:06 50.99687 176.17263 36718 ft 477 kts 64°
2026-05-04 11:06 51.02410 176.26854 36718 ft 476 kts 64°
2026-05-04 11:10 51.20669 176.92181 36739 ft 471 kts 65°
2026-05-04 11:12 51.31103 177.30366 36779 ft 470 kts 66°
2026-05-04 11:12 51.33694 177.39945 36789 ft 470 kts 66°
2026-05-04 11:13 51.36280 177.49546 36790 ft 469 kts 66°
2026-05-04 11:13 51.38853 177.59136 36794 ft 468 kts 66°
2026-05-04 11:14 51.41414 177.68721 36802 ft 467 kts 66°
2026-05-04 11:16 51.51502 178.06886 36824 ft 466 kts 67°
2026-05-04 11:16 51.54015 178.16490 36824 ft 466 kts 67°
2026-05-04 11:17 51.56504 178.26044 36833 ft 462 kts 67°
2026-05-04 11:19 51.66364 178.64291 36848 ft 464 kts 68°
2026-05-04 11:19 51.68819 178.73917 36849 ft 465 kts 68°
2026-05-04 11:20 51.71275 178.83584 36856 ft 467 kts 68°
2026-05-04 11:20 51.73726 178.93280 36858 ft 466 kts 68°
2026-05-04 11:22 51.83404 179.31974 36876 ft 466 kts 69°
2026-05-04 11:23 51.85800 179.41660 36880 ft 463 kts 69°
2026-05-04 11:25 51.94079 179.75382 36897 ft 460 kts 69°
2026-05-04 11:25 51.96436 179.85059 36903 ft 462 kts 69°
2026-05-04 11:27 52.07142 -179.71503 36906 ft 460 kts 69°
2026-05-04 11:28 52.09552 -179.61882 36907 ft 460 kts 69°
2026-05-04 11:28 52.11953 -179.52243 36911 ft 459 kts 69°
2026-05-04 11:29 52.14343 -179.42592 36917 ft 460 kts 69°
2026-05-04 11:29 52.16722 -179.32926 36916 ft 459 kts 69°
2026-05-04 11:33 52.33115 -178.65088 36940 ft 458 kts 70°
2026-05-04 11:33 52.35426 -178.55352 36947 ft 460 kts 70°
2026-05-04 11:34 52.37732 -178.45594 36950 ft 459 kts 70°
2026-05-04 11:34 52.40020 -178.35863 36953 ft 458 kts 70°
2026-05-04 11:35 52.42288 -178.26171 36955 ft 460 kts 70°
2026-05-04 11:35 52.44569 -178.16390 36965 ft 459 kts 70°
2026-05-04 11:36 52.46839 -178.06604 36968 ft 459 kts 70°
2026-05-04 11:36 52.49109 -177.96776 36972 ft 461 kts 70°
2026-05-04 11:37 52.51371 -177.86941 36971 ft 460 kts 70°
2026-05-04 11:37 52.53620 -177.77109 36980 ft 460 kts 70°
2026-05-04 11:38 52.55867 -177.67242 36983 ft 461 kts 70°
2026-05-04 11:38 52.58106 -177.57367 36988 ft 460 kts 70°
2026-05-04 11:39 52.60323 -177.47543 36989 ft 462 kts 70°
2026-05-04 11:41 52.68087 -177.12765 37002 ft 463 kts 71°
2026-05-04 11:41 52.70288 -177.02791 37008 ft 462 kts 71°
2026-05-04 11:42 52.72486 -176.92797 37008 ft 464 kts 71°
2026-05-04 11:42 52.74674 -176.82796 37015 ft 464 kts 71°
2026-05-04 11:43 52.76844 -176.72831 37015 ft 464 kts 71°
2026-05-04 11:43 52.79018 -176.62787 37018 ft 464 kts 71°
2026-05-04 11:44 52.81181 -176.52753 37023 ft 464 kts 71°
2026-05-04 11:44 52.83341 -176.42686 37022 ft 464 kts 71°
2026-05-04 11:45 52.85490 -176.32622 37025 ft 464 kts 71°
2026-05-04 11:45 52.87632 -176.22534 37029 ft 464 kts 71°
2026-05-04 11:46 52.89763 -176.12451 37029 ft 464 kts 71°
2026-05-04 11:46 52.91887 -176.02353 37034 ft 465 kts 71°
2026-05-04 11:47 52.94007 -175.92223 37034 ft 465 kts 71°
2026-05-04 11:47 52.96106 -175.82143 37038 ft 466 kts 71°
2026-05-04 11:48 52.98210 -175.71980 37035 ft 466 kts 71°
2026-05-04 11:48 53.00310 -175.61791 37039 ft 466 kts 71°
2026-05-04 11:49 53.02400 -175.51596 37041 ft 466 kts 71°
2026-05-04 11:49 53.04485 -175.41372 37048 ft 467 kts 71°
2026-05-04 11:50 53.06560 -175.31147 37054 ft 468 kts 71°
2026-05-04 11:50 53.08632 -175.20880 37045 ft 468 kts 72°
2026-05-04 11:51 53.10695 -175.10605 37046 ft 469 kts 72°
2026-05-04 11:51 53.12742 -175.00360 37045 ft 469 kts 72°
2026-05-04 11:52 53.14791 -174.90044 37061 ft 470 kts 72°
2026-05-04 11:52 53.16836 -174.79696 37055 ft 470 kts 72°
2026-05-04 11:53 53.18875 -174.69326 37061 ft 471 kts 72°
2026-05-04 11:53 53.20909 -174.58922 37059 ft 471 kts 72°
2026-05-04 11:55 53.28623 -174.18951 37067 ft 473 kts 72°
2026-05-04 11:56 53.30619 -174.08466 37071 ft 473 kts 72°
2026-05-04 11:56 53.32925 -173.96288 37071 ft 473 kts 72°
2026-05-04 11:57 53.34901 -173.85783 37070 ft 473 kts 72°
2026-05-04 11:57 53.36549 -173.76982 37079 ft 473 kts 72°
2026-05-04 11:58 53.38494 -173.66533 37077 ft 473 kts 72°
2026-05-04 11:58 53.40443 -173.56008 37072 ft 473 kts 72°
2026-05-04 11:59 53.42381 -173.45482 37074 ft 473 kts 72°
2026-05-04 11:59 53.44311 -173.34945 37077 ft 473 kts 72°
2026-05-04 12:00 53.46231 -173.24397 37073 ft 473 kts 72°
2026-05-04 12:00 53.48145 -173.13823 37076 ft 473 kts 72°
2026-05-04 12:01 53.50046 -173.03257 37083 ft 473 kts 72°
2026-05-04 12:02 53.56643 -172.66114 37075 ft 474 kts 72°
2026-05-04 12:03 53.58498 -172.55519 37073 ft 475 kts 72°
2026-05-04 12:03 53.60359 -172.44843 37071 ft 475 kts 72°
2026-05-04 12:04 53.62209 -172.34158 37068 ft 476 kts 72°
2026-05-04 12:04 53.64055 -172.23441 37072 ft 476 kts 72°
2026-05-04 12:05 53.65890 -172.12714 37071 ft 477 kts 72°
2026-05-04 12:05 53.67720 -172.01956 37075 ft 477 kts 72°
2026-05-04 12:06 53.69540 -171.91187 37073 ft 478 kts 72°
2026-05-04 12:06 53.71351 -171.80389 37073 ft 478 kts 72°
2026-05-04 12:07 53.73162 -171.69565 37074 ft 479 kts 72°
2026-05-04 12:07 53.74949 -171.58797 37073 ft 479 kts 72°
2026-05-04 12:08 53.76739 -171.47935 37076 ft 480 kts 72°
2026-05-04 12:08 53.78522 -171.37044 37076 ft 480 kts 72°
2026-05-04 12:09 53.80294 -171.26156 37078 ft 481 kts 72°
2026-05-04 12:09 53.82060 -171.15242 37080 ft 481 kts 73°
2026-05-04 12:10 53.83816 -171.04312 37078 ft 481 kts 73°
2026-05-04 12:10 53.85562 -170.93369 37075 ft 481 kts 73°
2026-05-04 12:11 53.87300 -170.82411 37073 ft 482 kts 73°
2026-05-04 12:11 53.89019 -170.71494 37072 ft 482 kts 73°
2026-05-04 12:12 53.90737 -170.60518 37073 ft 482 kts 73°
2026-05-04 12:12 53.92449 -170.49502 37076 ft 483 kts 73°
2026-05-04 12:14 53.99087 -170.05290 37072 ft 485 kts 78°
2026-05-04 12:15 53.99824 -169.93891 37072 ft 487 kts 86°
2026-05-04 12:15 53.99718 -169.82351 37065 ft 488 kts 90°
2026-05-04 12:16 53.99563 -169.70809 37066 ft 488 kts 89°
2026-05-04 12:16 53.99396 -169.59265 37065 ft 489 kts 90°
2026-05-04 12:17 53.99203 -169.47717 37059 ft 489 kts 90°
2026-05-04 12:17 53.98995 -169.36155 37054 ft 490 kts 90°
2026-05-04 12:18 53.98777 -169.24587 37053 ft 490 kts 90°
2026-05-04 12:18 53.98547 -169.13020 37050 ft 490 kts 90°
2026-05-04 12:19 53.98306 -169.01449 37053 ft 490 kts 90°
2026-05-04 12:19 53.98055 -168.89934 37058 ft 490 kts 90°
2026-05-04 12:20 53.97792 -168.78351 37047 ft 491 kts 90°
2026-05-04 12:20 53.97517 -168.66752 37051 ft 491 kts 91°
2026-05-04 12:21 53.97231 -168.55166 37045 ft 491 kts 91°
2026-05-04 12:21 53.96934 -168.43580 37040 ft 491 kts 91°
2026-05-04 12:22 53.96624 -168.31980 37035 ft 491 kts 91°
2026-05-04 12:22 53.96305 -168.20387 37034 ft 491 kts 91°
2026-05-04 12:23 53.95975 -168.08788 37027 ft 491 kts 91°
2026-05-04 12:23 53.95633 -167.97190 37034 ft 491 kts 91°
2026-05-04 12:24 53.95280 -167.85588 37026 ft 492 kts 91°
2026-05-04 12:24 53.94918 -167.74076 37020 ft 491 kts 91°
2026-05-04 12:25 53.94602 -167.64291 37031 ft 492 kts 91°
2026-05-04 12:25 53.94216 -167.52691 37026 ft 491 kts 91°
2026-05-04 12:26 53.93821 -167.41131 37008 ft 491 kts 92°
2026-05-04 12:26 53.93414 -167.29565 37006 ft 491 kts 92°
2026-05-04 12:27 53.92998 -167.18008 37005 ft 490 kts 92°
2026-05-04 12:27 53.92570 -167.06462 37012 ft 490 kts 92°
2026-05-04 12:28 53.92132 -166.94912 37019 ft 490 kts 92°
2026-05-04 12:28 53.91684 -166.83413 37027 ft 489 kts 92°
2026-05-04 12:29 53.91223 -166.71862 37037 ft 492 kts 92°
2026-05-04 12:29 53.90757 -166.60401 37032 ft 489 kts 93°
2026-05-04 12:30 53.90708 -166.48905 37038 ft 487 kts 84°
2026-05-04 12:30 53.91202 -166.37429 37034 ft 487 kts 85°
2026-05-04 12:31 53.91678 -166.25973 37023 ft 487 kts 85°
2026-05-04 12:31 53.92137 -166.14523 37007 ft 486 kts 85°
2026-05-04 12:32 53.92788 -165.97342 36979 ft 486 kts 85°
2026-05-04 12:33 53.93205 -165.85900 36963 ft 486 kts 86°
2026-05-04 12:33 53.93612 -165.74459 36959 ft 485 kts 86°
2026-05-04 12:34 53.94007 -165.63005 36956 ft 485 kts 86°
2026-05-04 12:34 53.94392 -165.51569 36948 ft 485 kts 86°
2026-05-04 12:35 53.94765 -165.40137 36942 ft 485 kts 86°
2026-05-04 12:35 53.95128 -165.28702 36934 ft 485 kts 86°
2026-05-04 12:36 53.95478 -165.17322 36927 ft 485 kts 87°
2026-05-04 12:36 53.95818 -165.05889 36925 ft 484 kts 87°
2026-05-04 12:37 53.96148 -164.94460 36911 ft 484 kts 87°
2026-05-04 12:37 53.96467 -164.83033 36907 ft 484 kts 87°
2026-05-04 12:38 53.96775 -164.71622 36901 ft 483 kts 87°
2026-05-04 12:38 53.97071 -164.60222 36892 ft 483 kts 88°
2026-05-04 12:39 53.97356 -164.48814 36889 ft 483 kts 88°
2026-05-04 12:39 53.97631 -164.37423 36885 ft 483 kts 88°
2026-05-04 12:40 53.97895 -164.26037 36885 ft 482 kts 88°
2026-05-04 12:40 53.98147 -164.14651 36880 ft 482 kts 88°
2026-05-04 12:41 53.98387 -164.03358 36878 ft 482 kts 88°
2026-05-04 12:41 53.98618 -163.91971 36874 ft 482 kts 88°
2026-05-04 12:42 53.98838 -163.80593 36875 ft 481 kts 88°
2026-05-04 12:42 53.99047 -163.69232 36869 ft 481 kts 89°
2026-05-04 12:43 53.99214 -163.59716 36870 ft 480 kts 89°
2026-05-04 12:43 53.99402 -163.48441 36862 ft 480 kts 89°
2026-05-04 12:44 53.99579 -163.37106 36854 ft 480 kts 89°
2026-05-04 12:44 53.99747 -163.25774 36850 ft 479 kts 89°
2026-05-04 12:45 53.99904 -163.14442 36845 ft 479 kts 89°
2026-05-04 12:45 54.00050 -163.03120 36842 ft 479 kts 90°
2026-05-04 12:46 54.00184 -162.91779 36836 ft 479 kts 90°
2026-05-04 12:46 54.00309 -162.80462 36832 ft 479 kts 90°
2026-05-04 12:47 54.00424 -162.69148 36824 ft 478 kts 90°
2026-05-04 12:47 54.00527 -162.57843 36818 ft 478 kts 90°
2026-05-04 12:48 54.00620 -162.46538 36812 ft 478 kts 90°
2026-05-04 12:48 54.00702 -162.35224 36809 ft 478 kts 90°
2026-05-04 12:49 54.00774 -162.23985 36805 ft 478 kts 90°
2026-05-04 12:49 54.00834 -162.12686 36796 ft 478 kts 91°
2026-05-04 12:50 54.00883 -162.01393 36791 ft 477 kts 91°
2026-05-04 12:50 54.00924 -161.90099 36787 ft 477 kts 91°
2026-05-04 12:51 54.00954 -161.78814 36782 ft 476 kts 91°
2026-05-04 12:51 54.00971 -161.67540 36776 ft 476 kts 91°
2026-05-04 12:52 54.00979 -161.56305 36767 ft 475 kts 91°
2026-05-04 12:52 54.00977 -161.45092 36759 ft 474 kts 91°
2026-05-04 12:53 54.00965 -161.33888 36749 ft 474 kts 91°
2026-05-04 12:53 54.00941 -161.22776 36746 ft 473 kts 91°
2026-05-04 12:54 54.00907 -161.11605 36738 ft 472 kts 91°
2026-05-04 12:54 54.00864 -161.00448 36729 ft 471 kts 91°
2026-05-04 12:55 54.00810 -160.89319 36721 ft 471 kts 92°
2026-05-04 12:55 54.00745 -160.78186 36716 ft 470 kts 92°
2026-05-04 12:56 54.00669 -160.67064 36709 ft 470 kts 92°
2026-05-04 12:56 54.00583 -160.55955 36704 ft 470 kts 92°
2026-05-04 12:57 54.00489 -160.44851 36695 ft 469 kts 92°
2026-05-04 12:57 54.00384 -160.33780 36688 ft 468 kts 92°
2026-05-04 12:58 54.00272 -160.22717 36678 ft 468 kts 92°
2026-05-04 12:58 54.00154 -160.11637 36675 ft 469 kts 92°
2026-05-04 12:59 53.99989 -160.00617 36669 ft 468 kts 94°
2026-05-04 12:59 53.99378 -159.89607 36664 ft 468 kts 97°
2026-05-04 13:00 53.98721 -159.78571 36651 ft 468 kts 96°
2026-05-04 13:00 53.98090 -159.67569 36644 ft 468 kts 96°
2026-05-04 13:01 53.97446 -159.56587 36637 ft 468 kts 96°
2026-05-04 13:01 53.96787 -159.45561 36625 ft 468 kts 96°
2026-05-04 13:02 53.96117 -159.34600 36619 ft 467 kts 96°
2026-05-04 13:02 53.95431 -159.23618 36617 ft 468 kts 97°
2026-05-04 13:03 53.94734 -159.12632 36608 ft 468 kts 97°
2026-05-04 13:03 53.94027 -159.01666 36598 ft 468 kts 97°
2026-05-04 13:04 53.93311 -158.90682 36591 ft 468 kts 97°
2026-05-04 13:04 53.92582 -158.79725 36585 ft 467 kts 97°
2026-05-04 13:05 53.91847 -158.68782 36580 ft 467 kts 97°
2026-05-04 13:05 53.91195 -158.59227 36580 ft 469 kts 97°
2026-05-04 13:06 53.90438 -158.48239 36574 ft 468 kts 97°
2026-05-04 13:06 53.89671 -158.37267 36572 ft 468 kts 97°
2026-05-04 13:07 53.88895 -158.26303 36571 ft 468 kts 97°
2026-05-04 13:07 53.88109 -158.15359 36567 ft 467 kts 97°
2026-05-04 13:08 53.87319 -158.04491 36563 ft 467 kts 97°
2026-05-04 13:08 53.86516 -157.93578 36568 ft 467 kts 98°
2026-05-04 13:09 53.85702 -157.82662 36562 ft 466 kts 98°
2026-05-04 13:09 53.84880 -157.71778 36556 ft 466 kts 98°
2026-05-04 13:10 53.84047 -157.60880 36558 ft 466 kts 98°
2026-05-04 13:10 53.83206 -157.50011 36551 ft 465 kts 98°
2026-05-04 13:11 53.82354 -157.39132 36549 ft 465 kts 98°
2026-05-04 13:11 53.81495 -157.28288 36548 ft 465 kts 98°
2026-05-04 13:12 53.80626 -157.17451 36542 ft 464 kts 98°
2026-05-04 13:12 53.79749 -157.06640 36541 ft 464 kts 98°
2026-05-04 13:13 53.78867 -156.95881 36537 ft 464 kts 99°
2026-05-04 13:13 53.77971 -156.85089 36537 ft 463 kts 99°
2026-05-04 13:14 53.77066 -156.74296 36533 ft 463 kts 99°
2026-05-04 13:14 53.76152 -156.63527 36528 ft 463 kts 99°
2026-05-04 13:15 53.75228 -156.52755 36526 ft 463 kts 99°
2026-05-04 13:15 53.74295 -156.42001 36522 ft 463 kts 99°
2026-05-04 13:16 53.73352 -156.31241 36524 ft 463 kts 100°
2026-05-04 13:16 53.72399 -156.20483 36520 ft 463 kts 100°
2026-05-04 13:17 53.71444 -156.09816 36519 ft 463 kts 100°
2026-05-04 13:17 53.70471 -155.99061 36519 ft 463 kts 100°
2026-05-04 13:18 53.69490 -155.88322 36514 ft 463 kts 101°
2026-05-04 13:18 53.68498 -155.77582 36527 ft 463 kts 101°
2026-05-04 13:19 53.67496 -155.66833 36523 ft 463 kts 101°
2026-05-04 13:19 53.66484 -155.56091 36517 ft 464 kts 101°
2026-05-04 13:20 53.65463 -155.45357 36512 ft 464 kts 101°
2026-05-04 13:20 53.64431 -155.34618 36511 ft 464 kts 102°
2026-05-04 13:21 53.63390 -155.23890 36518 ft 463 kts 102°
2026-05-04 13:21 53.62347 -155.13245 36518 ft 463 kts 102°
2026-05-04 13:22 53.61287 -155.02531 36516 ft 463 kts 102°
2026-05-04 13:22 53.60219 -154.91844 36518 ft 463 kts 102°
2026-05-04 13:23 53.59141 -154.81151 36517 ft 463 kts 103°
2026-05-04 13:23 53.58054 -154.70469 36516 ft 463 kts 103°
2026-05-04 13:24 53.56957 -154.59785 36514 ft 462 kts 103°
2026-05-04 13:24 53.55854 -154.49137 36516 ft 462 kts 103°
2026-05-04 13:25 53.54180 -154.33177 36520 ft 462 kts 103°
2026-05-04 13:25 53.53055 -154.22560 36518 ft 461 kts 103°
2026-05-04 13:26 53.51919 -154.11933 36521 ft 461 kts 104°
2026-05-04 13:26 53.50784 -154.01414 36515 ft 461 kts 104°
2026-05-04 13:27 53.49632 -153.90827 36517 ft 460 kts 104°
2026-05-04 13:27 53.48662 -153.81984 36520 ft 460 kts 104°
2026-05-04 13:28 53.47493 -153.71415 36521 ft 460 kts 104°
2026-05-04 13:28 53.46317 -153.60862 36519 ft 460 kts 104°
2026-05-04 13:29 53.45132 -153.50329 36523 ft 459 kts 104°
2026-05-04 13:29 53.43946 -153.39868 36522 ft 459 kts 105°
2026-05-04 13:30 53.42743 -153.29343 36524 ft 459 kts 105°
2026-05-04 13:30 53.41532 -153.18835 36520 ft 459 kts 105°
2026-05-04 13:31 53.40314 -153.08349 36522 ft 459 kts 105°
2026-05-04 13:31 53.39085 -152.97863 36524 ft 459 kts 105°
2026-05-04 13:32 53.37848 -152.87387 36527 ft 458 kts 105°
2026-05-04 13:32 53.36602 -152.76923 36528 ft 458 kts 105°
2026-05-04 13:33 53.35348 -152.66465 36530 ft 458 kts 105°
2026-05-04 13:33 53.34084 -152.56012 36530 ft 458 kts 106°
2026-05-04 13:34 53.32811 -152.45569 36538 ft 458 kts 106°
2026-05-04 13:34 53.31529 -152.35133 36536 ft 458 kts 106°
2026-05-04 13:35 53.29591 -152.19497 36539 ft 458 kts 106°
2026-05-04 13:36 53.28286 -152.09071 36545 ft 458 kts 107°
2026-05-04 13:36 53.26981 -151.98724 36556 ft 457 kts 107°
2026-05-04 13:37 53.25660 -151.88331 36552 ft 457 kts 107°
2026-05-04 13:37 53.24329 -151.77937 36551 ft 457 kts 107°
2026-05-04 13:38 53.22992 -151.67569 36557 ft 457 kts 107°
2026-05-04 13:38 53.21648 -151.57218 36558 ft 456 kts 107°
2026-05-04 13:39 53.20293 -151.46870 36561 ft 456 kts 108°
2026-05-04 13:39 53.18932 -151.36544 36565 ft 455 kts 108°
2026-05-04 13:40 53.17572 -151.26301 36571 ft 455 kts 108°
2026-05-04 13:40 53.16199 -151.16026 36575 ft 454 kts 108°
2026-05-04 13:41 53.14816 -151.05760 36578 ft 454 kts 108°
2026-05-04 13:41 53.13428 -150.95517 36581 ft 453 kts 108°
2026-05-04 13:42 53.11332 -150.80198 36585 ft 452 kts 109°
2026-05-04 13:42 53.09925 -150.69997 36591 ft 451 kts 109°
2026-05-04 13:43 53.08515 -150.59841 36594 ft 450 kts 109°
2026-05-04 13:43 53.07097 -150.49704 36594 ft 450 kts 109°
2026-05-04 13:44 53.05675 -150.39592 36598 ft 449 kts 109°
2026-05-04 13:44 53.04249 -150.29484 36614 ft 448 kts 109°
2026-05-04 13:45 53.02822 -150.19422 36620 ft 447 kts 110°
2026-05-04 13:45 53.01389 -150.09376 36622 ft 446 kts 110°
2026-05-04 13:46 52.99958 -149.99421 36628 ft 445 kts 110°
2026-05-04 13:46 52.99103 -149.89144 36635 ft 453 kts 102°
2026-05-04 13:47 52.98635 -149.78722 36639 ft 452 kts 102°
2026-05-04 13:47 52.98070 -149.68359 36646 ft 450 kts 103°
2026-05-04 13:48 52.97450 -149.58037 36648 ft 449 kts 103°
2026-05-04 13:48 52.96814 -149.47724 36658 ft 449 kts 104°
2026-05-04 13:49 52.96173 -149.37445 36662 ft 448 kts 104°
2026-05-04 13:49 52.95524 -149.27179 36674 ft 447 kts 104°
2026-05-04 13:50 52.94867 -149.16928 36677 ft 447 kts 104°
2026-05-04 13:50 52.94200 -149.06704 36687 ft 446 kts 104°
2026-05-04 13:51 52.93520 -148.96491 36691 ft 445 kts 105°
2026-05-04 13:51 52.92829 -148.86272 36700 ft 445 kts 105°
2026-05-04 13:52 52.91785 -148.71069 36726 ft 444 kts 105°
2026-05-04 13:53 52.91075 -148.60900 36710 ft 444 kts 105°
2026-05-04 13:53 52.90357 -148.50743 36723 ft 444 kts 106°
2026-05-04 13:54 52.89266 -148.35532 36735 ft 443 kts 106°
2026-05-04 13:55 52.88155 -148.20338 36742 ft 443 kts 107°
2026-05-04 13:55 52.87027 -148.05169 36760 ft 443 kts 107°
2026-05-04 13:56 52.86264 -147.95056 36771 ft 442 kts 107°
2026-05-04 13:57 52.85105 -147.79923 36786 ft 442 kts 107°
2026-05-04 13:58 52.83530 -147.59759 36793 ft 441 kts 108°
2026-05-04 13:58 52.82329 -147.44671 36800 ft 441 kts 108°
2026-05-04 13:59 52.81518 -147.34634 36807 ft 441 kts 108°
2026-05-04 14:00 52.80292 -147.19644 36819 ft 440 kts 108°
2026-05-04 14:00 52.79045 -147.04635 36832 ft 439 kts 109°
2026-05-04 14:01 52.78203 -146.94645 36840 ft 439 kts 109°
2026-05-04 14:02 52.76928 -146.79693 36844 ft 437 kts 109°
2026-05-04 14:02 52.76068 -146.69753 36851 ft 437 kts 109°
2026-05-04 14:03 52.75202 -146.59825 36855 ft 437 kts 109°
2026-05-04 14:03 52.74327 -146.49898 36864 ft 436 kts 109°
2026-05-04 14:04 52.73007 -146.35102 36874 ft 436 kts 110°
2026-05-04 14:04 52.72113 -146.25207 36880 ft 436 kts 110°
2026-05-04 14:05 52.70759 -146.10394 36887 ft 435 kts 110°
2026-05-04 14:06 52.69847 -146.00533 36900 ft 435 kts 110°
2026-05-04 14:06 52.68927 -145.90680 36902 ft 435 kts 110°
2026-05-04 14:07 52.68000 -145.80837 36912 ft 435 kts 110°
2026-05-04 14:07 52.67064 -145.70995 36915 ft 434 kts 110°
2026-05-04 14:08 52.66120 -145.61155 36924 ft 434 kts 111°
2026-05-04 14:08 52.65170 -145.51343 36927 ft 434 kts 111°
2026-05-04 14:09 52.63735 -145.36689 36937 ft 434 kts 111°
2026-05-04 14:10 52.62277 -145.21991 36949 ft 434 kts 111°
2026-05-04 14:10 52.61295 -145.12204 36957 ft 434 kts 111°
2026-05-04 14:11 52.60304 -145.02411 36960 ft 433 kts 111°
2026-05-04 14:11 52.58804 -144.87747 36967 ft 434 kts 111°
2026-05-04 14:12 52.57964 -144.79606 36973 ft 434 kts 111°
2026-05-04 14:13 52.56435 -144.64949 36978 ft 434 kts 111°
2026-05-04 14:13 52.55406 -144.55182 36991 ft 434 kts 111°
2026-05-04 14:14 52.54369 -144.45417 36993 ft 434 kts 112°
2026-05-04 14:14 52.52795 -144.30753 36999 ft 434 kts 112°
2026-05-04 14:15 52.50669 -144.11221 37012 ft 435 kts 112°
2026-05-04 14:16 52.49048 -143.96540 37020 ft 436 kts 112°
2026-05-04 14:17 52.47408 -143.81866 37023 ft 436 kts 112°
2026-05-04 14:18 52.45755 -143.67236 37035 ft 437 kts 112°
2026-05-04 14:19 52.43510 -143.47645 37045 ft 438 kts 112°
2026-05-04 14:19 52.42374 -143.37844 37050 ft 438 kts 112°
2026-05-04 14:20 52.41231 -143.28055 37054 ft 438 kts 112°
2026-05-04 14:20 52.40075 -143.18243 37059 ft 439 kts 112°
2026-05-04 14:21 52.38327 -143.03526 37070 ft 439 kts 112°
2026-05-04 14:21 52.37149 -142.93702 37074 ft 440 kts 112°
2026-05-04 14:22 52.35962 -142.83879 37076 ft 440 kts 112°
2026-05-04 14:22 52.34765 -142.74041 37079 ft 441 kts 112°
2026-05-04 14:23 52.32959 -142.59343 37086 ft 442 kts 112°
2026-05-04 14:24 52.31739 -142.49501 37090 ft 442 kts 112°
2026-05-04 14:24 52.30508 -142.39640 37094 ft 443 kts 112°
2026-05-04 14:25 52.29268 -142.29775 37099 ft 444 kts 112°
2026-05-04 14:25 52.27387 -142.14954 37108 ft 445 kts 112°
2026-05-04 14:26 52.26120 -142.05053 37108 ft 445 kts 112°
2026-05-04 14:26 52.24843 -141.95145 37113 ft 446 kts 112°
2026-05-04 14:27 52.23556 -141.85235 37115 ft 447 kts 112°
2026-05-04 14:27 52.22259 -141.75313 37117 ft 447 kts 112°
2026-05-04 14:28 52.20952 -141.65391 37122 ft 448 kts 112°
2026-05-04 14:28 52.19634 -141.55450 37125 ft 449 kts 112°
2026-05-04 14:29 52.16969 -141.35552 37135 ft 450 kts 111°
2026-05-04 14:30 52.15631 -141.25667 37142 ft 451 kts 111°
2026-05-04 14:31 52.13588 -141.10697 37142 ft 452 kts 111°
2026-05-04 14:32 52.10828 -140.90710 37141 ft 453 kts 111°
2026-05-04 14:32 52.09430 -140.80693 37141 ft 454 kts 111°
2026-05-04 14:33 52.08026 -140.70688 37144 ft 455 kts 111°
2026-05-04 14:33 52.06607 -140.60655 37144 ft 456 kts 111°
2026-05-04 14:34 52.05178 -140.50612 37149 ft 456 kts 111°
2026-05-04 14:34 52.03747 -140.40623 37148 ft 457 kts 111°
2026-05-04 14:35 52.02295 -140.30553 37157 ft 458 kts 111°
2026-05-04 14:35 52.00834 -140.20490 37157 ft 459 kts 111°
2026-05-04 14:36 51.99361 -140.10407 37159 ft 459 kts 111°
2026-05-04 14:36 51.97877 -140.00316 37160 ft 460 kts 111°
2026-05-04 14:37 51.96385 -139.90232 37155 ft 461 kts 111°
2026-05-04 14:37 51.94880 -139.80128 37162 ft 461 kts 111°
2026-05-04 14:38 51.93364 -139.70014 37165 ft 462 kts 111°
2026-05-04 14:38 51.91839 -139.59905 37169 ft 462 kts 111°
2026-05-04 14:39 51.90302 -139.49784 37167 ft 463 kts 111°
2026-05-04 14:39 51.88757 -139.39668 37166 ft 463 kts 111°
2026-05-04 14:40 51.86428 -139.24546 37188 ft 464 kts 111°
2026-05-04 14:40 51.84856 -139.14416 37183 ft 464 kts 111°
2026-05-04 14:41 51.83275 -139.04291 37171 ft 465 kts 111°
2026-05-04 14:42 51.80080 -138.84018 37175 ft 465 kts 111°
2026-05-04 14:42 51.78468 -138.73883 37172 ft 466 kts 111°
2026-05-04 14:43 51.76848 -138.63764 37177 ft 466 kts 111°
2026-05-04 14:43 51.75217 -138.53631 37172 ft 466 kts 111°
2026-05-04 14:44 51.73576 -138.43502 37172 ft 466 kts 111°
2026-05-04 14:44 51.71924 -138.33370 37172 ft 467 kts 111°
2026-05-04 14:45 51.70264 -138.23243 37170 ft 467 kts 111°
2026-05-04 14:45 51.68606 -138.13190 37167 ft 467 kts 111°
2026-05-04 14:46 51.66928 -138.03079 37166 ft 467 kts 111°
2026-05-04 14:46 51.65243 -137.92980 37167 ft 467 kts 111°
2026-05-04 14:47 51.63544 -137.82860 37164 ft 468 kts 111°
2026-05-04 14:47 51.61838 -137.72758 37168 ft 468 kts 111°
2026-05-04 14:48 51.60122 -137.62655 37172 ft 468 kts 111°
2026-05-04 14:48 51.58396 -137.52553 37166 ft 468 kts 111°
2026-05-04 14:49 51.56664 -137.42475 37171 ft 468 kts 111°
2026-05-04 14:49 51.54919 -137.32377 37173 ft 469 kts 111°
2026-05-04 14:50 51.53165 -137.22281 37163 ft 469 kts 111°
2026-05-04 14:50 51.51402 -137.12194 37152 ft 469 kts 111°
2026-05-04 14:51 51.49628 -137.02107 37149 ft 470 kts 111°
2026-05-04 14:51 51.47857 -136.92088 37149 ft 470 kts 111°
2026-05-04 14:52 51.46066 -136.82014 37140 ft 470 kts 111°
2026-05-04 14:52 51.44265 -136.71937 37143 ft 470 kts 111°
2026-05-04 14:53 51.42453 -136.61861 37135 ft 471 kts 110°
2026-05-04 14:53 51.40631 -136.51781 37133 ft 471 kts 110°
2026-05-04 14:54 51.38799 -136.41702 37131 ft 471 kts 110°
2026-05-04 14:54 51.36958 -136.31631 37133 ft 472 kts 110°
2026-05-04 14:55 51.35103 -136.21538 37127 ft 472 kts 110°
2026-05-04 14:55 51.33243 -136.11469 37126 ft 472 kts 110°
2026-05-04 14:56 51.31381 -136.01449 37332 ft 473 kts 110°
2026-05-04 14:56 51.30443 -135.96420 37494 ft 473 kts 110°
2026-05-04 14:56 51.29500 -135.91380 37666 ft 473 kts 110°
2026-05-04 14:57 51.28558 -135.86359 37823 ft 473 kts 110°
2026-05-04 14:57 51.27613 -135.81330 37974 ft 473 kts 110°
2026-05-04 14:57 51.26665 -135.76304 38124 ft 473 kts 110°
2026-05-04 14:57 51.25715 -135.71279 38273 ft 472 kts 110°
2026-05-04 14:58 51.24764 -135.66263 38438 ft 472 kts 110°
2026-05-04 14:58 51.23811 -135.61249 38591 ft 472 kts 110°
2026-05-04 14:58 51.22855 -135.56236 38724 ft 472 kts 110°
2026-05-04 14:58 51.22219 -135.52908 38810 ft 472 kts 110°
2026-05-04 14:59 51.20936 -135.46208 38961 ft 472 kts 110°
2026-05-04 14:59 51.20300 -135.42894 39037 ft 472 kts 110°
2026-05-04 15:00 51.17404 -135.27886 39106 ft 472 kts 110°
2026-05-04 15:00 51.15465 -135.17902 39099 ft 472 kts 110°
2026-05-04 15:01 51.12539 -135.02924 39090 ft 473 kts 110°
2026-05-04 15:01 51.10595 -134.93001 39090 ft 473 kts 110°
2026-05-04 15:02 51.08632 -134.83030 39092 ft 473 kts 110°
2026-05-04 15:02 51.06653 -134.73032 39090 ft 473 kts 110°
2026-05-04 15:03 51.04667 -134.63044 39087 ft 473 kts 110°
2026-05-04 15:03 51.02675 -134.53079 39085 ft 473 kts 110°
2026-05-04 15:04 51.00652 -134.43126 39082 ft 473 kts 110°
2026-05-04 15:04 50.98529 -134.33234 39077 ft 473 kts 112°
2026-05-04 15:05 50.96254 -134.23436 39076 ft 473 kts 111°
2026-05-04 15:05 50.94070 -134.13581 39074 ft 473 kts 111°
2026-05-04 15:06 50.91895 -134.03796 39071 ft 474 kts 111°
2026-05-04 15:07 50.88584 -133.89037 39070 ft 474 kts 111°
2026-05-04 15:07 50.86364 -133.79210 39064 ft 474 kts 111°
2026-05-04 15:08 50.84125 -133.69372 39061 ft 475 kts 111°
2026-05-04 15:08 50.81876 -133.59542 39060 ft 475 kts 111°
2026-05-04 15:09 50.79622 -133.49735 39058 ft 475 kts 111°
2026-05-04 15:09 50.77358 -133.39934 39054 ft 475 kts 111°
2026-05-04 15:10 50.73943 -133.25237 39050 ft 475 kts 111°
2026-05-04 15:11 50.70505 -133.10545 39037 ft 476 kts 111°
2026-05-04 15:11 50.68204 -133.00764 39035 ft 476 kts 111°
2026-05-04 15:12 50.65909 -132.91045 39048 ft 476 kts 111°
2026-05-04 15:12 50.63591 -132.81277 39048 ft 476 kts 111°
2026-05-04 15:13 50.61266 -132.71526 39041 ft 476 kts 111°
2026-05-04 15:13 50.58926 -132.61756 39025 ft 476 kts 111°
2026-05-04 15:14 50.56581 -132.52008 39017 ft 476 kts 111°
2026-05-04 15:14 50.54228 -132.42267 39020 ft 477 kts 111°
2026-05-04 15:15 50.51865 -132.32531 39031 ft 477 kts 111°
2026-05-04 15:15 50.49495 -132.22806 39035 ft 477 kts 111°
2026-05-04 15:16 50.45919 -132.08215 39012 ft 477 kts 111°
2026-05-04 15:17 50.42328 -131.93659 39001 ft 477 kts 111°
2026-05-04 15:17 50.38715 -131.79107 39009 ft 477 kts 111°
2026-05-04 15:18 50.36296 -131.69422 39014 ft 477 kts 111°
2026-05-04 15:19 50.32653 -131.54909 39004 ft 477 kts 110°
2026-05-04 15:19 50.29006 -131.40478 38986 ft 478 kts 110°
2026-05-04 15:20 50.26555 -131.30830 38988 ft 478 kts 110°
2026-05-04 15:20 50.24093 -131.21179 38998 ft 478 kts 110°
2026-05-04 15:21 50.21625 -131.11549 38995 ft 478 kts 110°
2026-05-04 15:22 50.17905 -130.97110 38971 ft 478 kts 110°
2026-05-04 15:22 50.14164 -130.82676 38963 ft 479 kts 110°
2026-05-04 15:23 50.11673 -130.73120 38967 ft 478 kts 110°
2026-05-04 15:23 50.09162 -130.63524 38976 ft 478 kts 110°
2026-05-04 15:24 50.04116 -130.44361 38952 ft 478 kts 110°
2026-05-04 15:25 50.01580 -130.34792 38947 ft 478 kts 110°
2026-05-04 15:26 49.97763 -130.20465 38949 ft 478 kts 110°
2026-05-04 15:26 49.93927 -130.06150 38941 ft 478 kts 110°
2026-05-04 15:27 49.90071 -129.91852 38938 ft 479 kts 110°
2026-05-04 15:28 49.86197 -129.77579 38847 ft 479 kts 110°
2026-05-04 15:28 49.83598 -129.68049 38521 ft 481 kts 110°
2026-05-04 15:29 49.82293 -129.63278 38679 ft 480 kts 110°
2026-05-04 15:30 49.77079 -129.44321 38919 ft 478 kts 110°
2026-05-04 15:30 49.73150 -129.30132 38915 ft 478 kts 110°
2026-05-04 15:31 49.69201 -129.15957 38916 ft 479 kts 110°
2026-05-04 15:32 49.62577 -128.92371 38906 ft 479 kts 110°
2026-05-04 15:34 49.55914 -128.68880 38907 ft 479 kts 110°
2026-05-04 15:34 49.51887 -128.54795 38905 ft 479 kts 110°
2026-05-04 15:35 49.47858 -128.40784 38904 ft 479 kts 110°
2026-05-04 15:36 49.43801 -128.26756 38901 ft 479 kts 110°
2026-05-04 15:36 49.41085 -128.17410 38899 ft 479 kts 110°
2026-05-04 15:37 49.38360 -128.08070 38897 ft 479 kts 110°
2026-05-04 15:37 49.35630 -127.98750 38902 ft 479 kts 110°
2026-05-04 15:38 49.32892 -127.89441 38906 ft 479 kts 110°
2026-05-04 15:38 49.30147 -127.80139 38899 ft 478 kts 110°
2026-05-04 15:39 49.27413 -127.70913 38895 ft 478 kts 110°
2026-05-04 15:40 49.23273 -127.57008 38902 ft 478 kts 110°
2026-05-04 15:40 49.20510 -127.47769 38900 ft 478 kts 110°
2026-05-04 15:41 49.17742 -127.38550 38895 ft 477 kts 110°
2026-05-04 15:41 49.14961 -127.29324 38896 ft 477 kts 110°
2026-05-04 15:42 49.12182 -127.20136 38898 ft 477 kts 110°
2026-05-04 15:42 49.09393 -127.10953 38896 ft 476 kts 110°
2026-05-04 15:43 49.06600 -127.01788 38898 ft 476 kts 110°
2026-05-04 15:43 49.03814 -126.92680 38898 ft 476 kts 110°
2026-05-04 15:44 49.01008 -126.83543 38900 ft 476 kts 110°
2026-05-04 15:44 48.98198 -126.74426 38898 ft 476 kts 110°
2026-05-04 15:45 48.95381 -126.65318 38897 ft 475 kts 110°